TimeMST,TemperatureF,Dew PointF,Humidity,Sea Level PressureIn,VisibilityMPH,Wind Direction,Wind SpeedMPH,Gust SpeedMPH,PrecipitationIn,Events,Conditions,WindDirDegrees,DateUTC
12:58 AM,39.9,20.8,47,29.90,10.0,ESE,2.3,-,N/A,,Clear,110,2012-11-26 07:58:00
1:58 AM,41.2,17.8,39,29.89,10.0,Calm,Calm,-,N/A,,Clear,30,2012-11-26 08:58:00
2:58 AM,38.7,16.5,41,29.89,10.0,East,3.5,-,N/A,,Clear,100,2012-11-26 09:58:00
3:58 AM,38.3,18.1,44,29.91,10.0,East,2.3,-,N/A,,Clear,100,2012-11-26 10:58:00
4:58 AM,34.5,18.7,52,29.93,10.0,East,3.5,-,N/A,,Clear,90,2012-11-26 11:58:00
5:58 AM,36.9,21.6,54,29.96,10.0,Calm,Calm,-,N/A,,Clear,0,2012-11-26 12:58:00
6:58 AM,34.5,19.8,55,30.00,10.0,NNW,1.2,-,N/A,,Clear,340,2012-11-26 13:58:00
7:58 AM,40.8,21.7,47,30.03,10.0,South,3.5,-,N/A,,Clear,190,2012-11-26 14:58:00
8:58 AM,45.0,25.0,46,30.04,10.0,SE,3.5,-,N/A,,Clear,140,2012-11-26 15:58:00
9:58 AM,55.0,27.1,34,30.03,10.0,SE,6.9,-,N/A,,Clear,140,2012-11-26 16:58:00
10:58 AM,61.3,26.4,27,30.03,10.0,SSE,6.9,-,N/A,,Clear,160,2012-11-26 17:58:00
11:58 AM,64.6,25.3,23,29.99,10.0,SSE,4.6,-,N/A,,Clear,160,2012-11-26 18:58:00
12:58 PM,67.1,25.3,21,29.99,10.0,Variable,2.3,-,N/A,,Clear,0,2012-11-26 19:58:00
1:58 PM,70.0,22.5,17,29.97,10.0,Calm,Calm,-,N/A,,Clear,0,2012-11-26 20:58:00
2:58 PM,69.6,23.0,17,29.97,10.0,NW,4.6,-,N/A,,Clear,310,2012-11-26 21:58:00
3:58 PM,69.8,20.5,15,29.99,10.0,WNW,3.5,-,N/A,,Clear,300,2012-11-26 22:58:00
4:58 PM,67.1,19.8,16,30.01,10.0,Calm,Calm,-,N/A,,Clear,10,2012-11-26 23:58:00
5:58 PM,58.3,19.2,22,30.05,10.0,ENE,2.3,-,N/A,,Clear,60,2012-11-27 00:58:00
6:58 PM,53.1,19.6,27,30.09,10.0,East,12.7,-,N/A,,Clear,90,2012-11-27 01:58:00
7:58 PM,56.5,20.8,25,30.07,10.0,East,10.4,-,N/A,,Clear,90,2012-11-27 02:58:00
8:58 PM,46.9,18.7,33,30.12,10.0,WNW,6.9,-,N/A,,Clear,290,2012-11-27 03:58:00
9:58 PM,45.5,20.1,36,30.15,10.0,NW,10.4,-,N/A,,Clear,310,2012-11-27 04:58:00
10:58 PM,43.0,21.6,43,30.17,10.0,ENE,8.1,-,N/A,,Clear,70,2012-11-27 05:58:00
11:58 PM,40.5,20.7,45,30.19,10.0,Calm,Calm,-,N/A,,Clear,360,2012-11-27 06:58:00